Precipitable_Water
0.25 0.20 0.16 0.23 0.31 0.38 0.39 0.40 0.45 0.51 0.53 0.52 0.55 0.64 0.81 1.00 1.06 0.98 0.97 0.93 0.97 0.87 0.83 0.99 1.10 1.20 1.28 1.39 1.39 1.39 1.36 1.37 1.38 1.35 1.37 1.41 1.35 1.44 1.51 1.59 1.61 1.59 1.65 1.64
0.20 0.15 0.20 0.26 0.29 0.34 0.37 0.37 0.41 0.49 0.49 0.41 0.45 0.63 0.87 0.99 0.96 0.90 0.96 0.99 0.90 0.89 0.81 0.90 1.02 1.11 1.14 1.19 1.25 1.31 1.32 1.34 1.31 1.34 1.41 1.43 1.42 1.39 1.44 1.52 1.56 1.57 1.63 1.66
0.16 0.17 0.22 0.20 0.22 0.25 0.31 0.33 0.40 0.44 0.45 0.43 0.50 0.53 0.82 0.99 1.04 1.05 1.04 1.01 1.00 0.91 0.79 0.71 0.84 0.97 1.03 1.04 1.07 1.13 1.19 1.26 1.31 1.30 1.37 1.39 1.43 1.38 1.27 1.27 1.37 1.51 1.53 1.53
0.19 0.22 0.18 0.17 0.16 0.21 0.20 0.33 0.40 0.43 0.40 0.32 0.51 0.42 0.63 0.84 0.92 0.94 0.97 1.00 1.05 1.00 0.92 0.84 0.82 0.76 0.85 0.93 1.07 1.13 1.18 1.21 1.29 1.31 1.24 1.17 1.10 1.08 1.13 1.19 1.31 1.38 1.46 1.47
0.16 0.15 0.17 0.15 0.14 0.19 0.16 0.30 0.38 0.41 0.38 0.35 0.36 0.42 0.58 0.74 0.76 0.78 0.83 0.91 1.00 1.09 0.96 0.87 0.84 0.88 0.85 0.88 0.96 1.06 1.13 1.22 1.27 1.27 1.23 1.18 1.13 1.15 1.24 1.18 1.26 1.30 1.38 1.40
0.21 0.23 0.18 0.17 0.19 0.19 0.19 0.22 0.30 0.39 0.36 0.27 0.34 0.34 0.39 0.62 0.64 0.69 0.80 0.89 0.95 1.05 1.05 0.94 0.86 0.97 1.08 1.16 1.02 1.04 1.09 1.15 1.23 1.23 1.21 1.17 1.12 1.11 1.11 1.11 1.17 1.23 1.36 1.29
0.25 0.23 0.27 0.27 0.20 0.23 0.20 0.16 0.17 0.22 0.26 0.21 0.33 0.34 0.32 0.52 0.69 0.71 0.73 0.82 0.93 0.99 1.10 1.01 0.84 0.93 1.05 1.16 1.18 1.14 1.14 1.14 1.25 1.24 1.21 1.18 1.17 1.16 1.08 1.12 1.09 1.21 1.14 1.18
0.22 0.19 0.25 0.27 0.24 0.19 0.20 0.17 0.12 0.11 0.17 0.21 0.30 0.24 0.26 0.47 0.60 0.76 0.79 0.82 0.90 0.95 1.01 1.07 1.01 0.96 1.01 1.09 1.18 1.19 1.14 1.16 1.31 1.34 1.24 1.22 1.20 1.17 1.15 1.15 1.12 1.17 1.09 1.16
0.25 0.23 0.32 0.29 0.26 0.24 0.20 0.17 0.19 0.13 0.17 0.18 0.22 0.25 0.33 0.43 0.51 0.60 0.68 0.83 0.86 0.95 1.02 1.07 1.08 1.11 1.12 1.15 1.16 1.19 1.18 1.22 1.30 1.36 1.36 1.25 1.21 1.19 1.17 1.14 1.18 1.15 1.16 1.26
0.30 0.22 0.29 0.30 0.31 0.27 0.22 0.23 0.16 0.16 0.10 0.09 0.13 0.17 0.21 0.31 0.41 0.52 0.59 0.67 0.79 0.89 0.98 1.04 1.14 1.16 1.24 1.21 1.18 1.29 1.32 1.24 1.25 1.31 1.36 1.30 1.21 1.21 1.22 1.22 1.10 1.07 1.14 1.30
0.37 0.28 0.24 0.29 0.26 0.21 0.21 0.19 0.20 0.18 0.14 0.10 0.09 0.10 0.19 0.27 0.37 0.46 0.53 0.61 0.70 0.79 0.87 0.98 1.12 1.20 1.25 1.26 1.24 1.24 1.29 1.29 1.29 1.31 1.37 1.37 1.23 1.21 1.25 1.20 1.08 1.08 1.21 1.33
0.40 0.32 0.24 0.25 0.28 0.29 0.26 0.20 0.20 0.16 0.13 0.13 0.12 0.10 0.19 0.18 0.27 0.38 0.47 0.55 0.58 0.68 0.82 0.94 1.09 1.18 1.23 1.23 1.29 1.28 1.27 1.28 1.30 1.31 1.31 1.35 1.31 1.20 1.19 1.18 1.13 1.19 1.23 1.34
0.41 0.30 0.21 0.21 0.25 0.28 0.26 0.26 0.22 0.20 0.18 0.14 0.11 0.12 0.18 0.18 0.21 0.28 0.39 0.48 0.54 0.67 0.81 0.90 1.04 1.10 1.15 1.20 1.27 1.30 1.31 1.31 1.35 1.37 1.32 1.35 1.38 1.21 1.08 1.12 1.16 1.17 1.24 1.32
0.46 0.34 0.27 0.19 0.21 0.26 0.23 0.24 0.25 0.21 0.16 0.15 0.14 0.16 0.18 0.19 0.18 0.18 0.30 0.41 0.49 0.59 0.79 0.88 0.98 1.06 1.08 1.12 1.18 1.24 1.26 1.31 1.40 1.39 1.34 1.28 1.33 1.30 1.07 1.07 1.13 1.13 1.21 1.30
0.45 0.32 0.32 0.32 0.31 0.30 0.28 0.25 0.24 0.21 0.20 0.17 0.18 0.17 0.19 0.20 0.21 0.24 0.25 0.35 0.49 0.59 0.68 0.84 0.96 1.04 1.03 1.10 1.18 1.23 1.28 1.32 1.35 1.36 1.35 1.28 1.34 1.35 1.22 1.07 1.10 1.17 1.23 1.25
0.45 0.34 0.37 0.30 0.31 0.29 0.26 0.27 0.24 0.22 0.23 0.22 0.22 0.20 0.23 0.25 0.24 0.21 0.21 0.27 0.39 0.49 0.65 0.75 0.86 0.93 1.01 1.05 1.13 1.22 1.28 1.36 1.45 1.40 1.27 1.32 1.36 1.34 1.28 1.12 1.12 1.17 1.22 1.27
0.39 0.37 0.36 0.27 0.32 0.31 0.24 0.23 0.25 0.25 0.27 0.26 0.21 0.23 0.27 0.25 0.28 0.27 0.24 0.24 0.32 0.40 0.56 0.72 0.81 0.86 0.93 0.98 1.10 1.11 1.18 1.38 1.47 1.48 1.37 1.36 1.38 1.33 1.29 1.26 1.15 1.15 1.17 1.24
0.39 0.38 0.39 0.32 0.33 0.22 0.23 0.32 0.32 0.28 0.28 0.30 0.30 0.30 0.30 0.31 0.32 0.32 0.29 0.24 0.31 0.41 0.57 0.70 0.80 0.81 0.86 0.87 0.97 1.09 1.19 1.33 1.40 1.41 1.41 1.44 1.39 1.32 1.36 1.32 1.17 1.11 1.18 1.18
0.42 0.40 0.36 0.33 0.30 0.30 0.28 0.35 0.33 0.31 0.28 0.33 0.31 0.33 0.34 0.34 0.36 0.33 0.37 0.33 0.35 0.43 0.57 0.69 0.81 0.85 0.84 0.84 0.91 1.03 1.12 1.20 1.36 1.44 1.44 1.47 1.46 1.38 1.43 1.35 1.26 1.24 1.22 1.21
0.35 0.38 0.39 0.38 0.30 0.23 0.33 0.48 0.58 0.47 0.27 0.34 0.33 0.34 0.37 0.37 0.29 0.31 0.41 0.38 0.35 0.39 0.48 0.76 0.87 0.82 0.81 0.91 0.98 1.02 1.08 1.21 1.27 1.39 1.47 1.48 1.49 1.46 1.44 1.47 1.45 1.37 1.32 1.22
0.31 0.37 0.39 0.41 0.36 0.33 0.44 0.59 0.71 0.36 0.27 0.39 0.39 0.36 0.39 0.36 0.36 0.42 0.51 0.48 0.47 0.44 0.45 0.59 0.75 0.77 0.80 0.92 0.99 0.96 1.04 1.11 1.14 1.39 1.45 1.47 1.45 1.43 1.41 1.49 1.65 1.63 1.56 1.48
0.33 0.37 0.41 0.43 0.40 0.30 0.64 0.71 0.63 0.73 0.68 0.63 0.49 0.44 0.41 0.47 0.51 0.53 0.55 0.52 0.52 0.46 0.50 0.52 0.51 0.59 0.73 0.86 0.90 0.89 0.90 0.96 1.09 1.10 1.19 1.30 1.35 1.41 1.46 1.46 1.53 1.70 1.71 1.68
0.31 0.49 0.44 0.50 0.47 0.58 0.79 0.85 0.98 1.02 0.88 0.81 0.57 0.61 0.54 0.57 0.63 0.65 0.65 0.67 0.68 0.69 0.70 0.72 0.62 0.61 0.69 0.66 0.78 0.78 0.83 0.94 1.01 1.09 1.13 1.17 1.27 1.37 1.42 1.42 1.41 1.53 1.60 1.62
0.41 0.53 0.43 0.51 0.63 0.67 0.79 1.00 1.11 1.12 1.04 0.96 0.84 0.84 0.77 0.70 0.78 0.79 0.82 0.84 0.85 0.91 0.88 0.92 0.87 0.81 0.82 0.95 0.90 0.88 0.94 0.98 1.05 1.06 1.11 1.17 1.17 1.26 1.42 1.48 1.53 1.55 1.64 1.71
0.49 0.61 0.46 0.52 0.62 0.69 0.78 1.02 1.14 1.17 1.18 1.05 0.98 0.93 0.94 0.95 0.93 0.96 0.99 1.02 1.02 1.03 1.08 1.11 1.08 1.07 1.07 1.15 1.12 1.16 1.14 1.06 0.98 1.06 1.10 1.18 1.30 1.42 1.49 1.53 1.57 1.72 1.72 1.83
0.59 0.60 0.48 0.44 0.68 0.74 0.78 1.10 1.22 1.22 1.19 1.18 1.11 1.07 1.15 1.15 1.12 1.16 1.11 1.16 1.16 1.12 1.14 1.10 1.09 1.10 1.14 1.20 1.24 1.32 1.39 1.38 1.30 1.24 1.27 1.31 1.34 1.40 1.43 1.51 1.66 1.98 2.02 2.04
Wind_Speed
18 20 25 25 23 21 18 17 16 14 10 7 11 16 19 19 17 16 15 15 15 15 19 21 23 23 22 21 21 20 19 18 17 16 15 14 14 12 11 10 10 9 9 8
15 22 23 24 24 24 22 20 20 16 16 13 11 17 21 22 20 20 19 17 16 15 17 21 22 23 23 23 22 21 20 19 19 17 16 14 14 14 13 12 11 11 10 10
19 14 21 23 23 23 23 23 21 19 13 13 9 11 19 24 20 18 20 19 18 17 17 18 23 23 23 24 23 22 22 20 19 18 17 15 14 13 13 13 13 12 11 10
19 22 18 21 22 24 25 23 22 20 15 14 11 12 18 23 24 21 21 21 20 19 19 19 20 23 24 25 24 24 23 22 20 20 19 18 16 14 13 13 13 12 11 11
17 20 24 21 25 22 22 23 23 21 20 18 18 12 15 24 25 24 22 24 23 21 21 21 21 22 22 24 24 24 24 23 22 21 21 19 18 16 15 14 14 12 12 11
25 17 22 22 19 24 21 19 19 21 21 23 25 17 18 21 26 25 22 25 25 24 23 23 23 22 22 22 23 25 24 24 23 23 22 21 20 18 17 16 16 14 13 13
22 28 18 17 22 20 20 19 19 20 22 24 24 21 23 19 26 26 25 26 26 26 25 25 25 23 23 24 23 24 24 25 25 25 24 23 22 20 20 18 17 15 14 14
22 20 29 23 23 23 23 26 20 20 19 21 20 25 22 26 23 23 27 26 26 25 27 27 28 26 25 25 24 24 24 25 26 25 25 24 23 22 21 20 19 19 17 16
23 25 21 29 25 27 21 27 27 19 18 16 21 26 27 26 24 24 24 24 25 26 26 28 29 27 27 26 25 24 23 23 24 25 25 25 25 24 23 22 20 20 20 18
26 21 25 24 26 30 30 22 20 21 24 24 19 21 22 26 30 25 23 25 27 28 28 28 28 27 28 29 27 25 24 24 23 24 24 24 25 25 24 23 23 22 22 21
31 28 24 22 28 33 27 29 25 23 23 22 18 23 23 24 26 27 26 24 26 27 29 30 29 27 27 30 29 28 26 25 25 24 23 23 23 25 25 25 24 24 24 23
27 29 36 37 28 30 34 32 30 25 27 25 26 24 10 24 31 26 26 25 25 27 31 31 30 28 28 30 30 29 28 27 26 25 24 24 23 24 26 26 25 27 26 25
26 28 28 26 30 33 33 35 37 35 26 34 25 20 20 22 19 26 30 27 25 25 27 31 33 30 29 31 31 31 31 30 28 26 26 25 24 24 26 28 26 29 28 27
27 30 30 31 28 27 33 34 38 38 34 34 34 24 18 18 21 25 27 27 25 24 26 29 32 31 29 30 30 30 31 32 31 29 28 27 26 25 26 28 28 29 30 28
29 32 32 32 34 36 35 35 44 42 43 36 31 31 28 23 21 19 22 25 25 24 25 28 30 31 29 29 29 30 30 30 31 30 29 29 27 27 26 28 29 30 30 30
32 33 32 34 35 36 40 39 42 49 44 38 34 30 27 28 27 28 29 28 26 25 27 26 30 31 30 30 32 33 31 31 30 30 30 29 29 28 28 29 31 32 32 32
36 34 31 35 33 31 37 51 43 40 42 40 40 32 29 28 26 27 29 31 31 29 28 29 30 30 30 28 31 33 34 34 32 31 30 29 30 31 31 30 32 33 33 33
40 37 34 35 32 35 40 38 43 43 39 37 33 32 33 33 31 29 28 28 31 29 28 27 30 29 30 31 31 33 33 34 34 32 32 32 30 31 32 32 33 35 36 36
47 40 36 34 33 38 40 31 35 35 40 35 40 34 29 31 27 29 27 28 28 28 28 30 30 31 32 31 30 32 35 35 36 35 33 33 33 32 31 34 35 35 36 37
46 46 39 34 32 35 33 31 31 36 41 42 36 35 29 26 31 32 28 27 29 27 26 29 30 27 24 26 27 29 31 34 35 38 36 36 36 35 35 35 36 38 38 38
38 41 43 41 36 35 33 30 32 32 41 36 37 38 33 31 32 29 29 26 26 27 27 25 26 27 28 26 27 29 31 34 35 37 37 38 38 37 37 37 39 39 39 39
35 36 39 42 38 37 26 25 24 29 35 39 37 36 35 31 26 27 28 26 23 21 24 27 28 29 29 29 31 33 34 36 36 36 37 39 40 39 37 36 37 41 41 40
35 34 35 39 41 36 27 27 27 25 30 27 29 30 33 30 26 23 24 24 21 20 19 21 24 26 26 29 31 33 36 38 39 40 40 41 42 42 41 40 39 38 40 43
31 34 34 34 35 38 25 23 23 23 24 25 24 24 25 28 25 23 21 20 19 18 18 18 18 20 23 26 29 33 33 35 36 39 41 41 42 43 45 44 44 44 43 43
27 29 35 37 31 36 26 20 22 24 25 23 23 23 21 22 22 22 21 19 18 17 17 18 19 20 21 23 25 27 29 33 36 39 41 42 44 43 42 42 46 47 47 46
20 26 33 32 36 32 27 22 23 25 24 23 22 21 20 20 19 18 17 17 17 17 18 19 20 22 24 25 26 28 29 30 32 34 37 40 42 42 42 42 39 39 41 40
Wind_Direction
213 215 217 217 217 220 220 225 231 218 226 238 238 214 200 198 205 205 201 197 197 199 197 196 197 197 198 199 200 199 199 201 201 203 207 209 212 212 215 219 223 226 226 231
218 223 217 218 219 222 222 227 236 229 229 233 240 227 213 203 210 210 205 201 199 199 197 201 200 202 204 204 205 205 205 206 208 210 213 214 218 223 226 230 230 232 235 240
222 229 215 217 219 220 223 222 228 225 228 234 237 238 211 214 222 219 214 211 208 204 200 199 204 206 207 208 208 208 209 211 212 214 216 219 223 226 228 230 230 235 237 241
231 226 222 220 224 219 229 221 227 225 229 234 229 240 219 215 218 220 216 213 213 212 212 210 205 208 210 212 212 213 212 214 216 216 218 221 224 226 229 229 230 234 235 239
227 218 221 225 225 217 228 221 221 225 230 237 236 240 237 210 216 220 216 216 216 216 214 213 211 210 210 211 212 213 215 218 219 220 222 225 228 229 229 230 228 232 237 236
227 229 223 226 223 220 218 226 225 229 230 239 237 225 232 211 210 216 223 222 220 219 218 218 217 215 214 213 214 216 218 221 222 223 225 226 228 229 228 229 231 235 237 227
227 229 229 220 220 218 212 209 226 231 229 240 231 232 231 220 219 223 222 225 222 220 220 219 219 218 219 219 219 220 221 223 225 226 227 227 228 229 229 230 231 231 226 215
224 231 225 225 221 218 216 211 214 222 231 239 231 235 232 226 228 227 225 223 224 223 222 221 222 222 223 222 222 223 224 225 226 227 227 228 228 229 230 230 232 228 223 217
226 235 235 225 223 213 217 219 221 230 235 245 238 245 241 229 229 230 226 223 223 224 221 222 222 226 225 223 222 221 223 224 225 225 227 227 228 229 230 231 231 226 221 215
232 237 229 226 221 224 220 218 219 230 232 240 242 242 231 222 225 226 229 228 228 226 224 224 225 228 227 223 223 224 225 224 224 223 225 227 228 229 230 230 228 225 219 216
232 232 229 219 222 218 220 223 226 226 227 235 242 247 233 228 224 225 228 230 228 227 226 225 227 228 230 225 224 225 226 225 225 224 225 227 229 229 229 230 227 222 216 215
234 235 234 231 231 226 225 224 221 226 231 240 242 240 253 228 229 228 229 230 237 235 231 227 227 228 227 222 224 224 225 226 226 226 226 228 230 229 229 228 226 220 217 218
239 235 234 239 233 232 228 226 226 231 235 235 236 245 236 232 232 229 230 236 241 241 234 228 227 227 228 225 226 228 227 227 227 228 229 230 231 231 229 226 224 218 218 220
234 234 233 234 235 232 230 230 226 225 234 236 238 242 237 232 233 236 232 237 241 239 231 227 224 224 226 226 226 227 227 226 227 228 229 230 230 232 229 225 224 221 221 223
233 234 238 239 244 239 237 234 228 228 231 233 239 236 238 234 233 232 233 234 239 238 233 229 223 222 225 226 227 227 226 226 227 228 229 230 230 231 230 226 224 224 225 227
237 237 242 240 240 237 238 236 235 230 231 236 237 240 237 238 241 242 241 239 237 239 236 232 226 225 229 229 228 227 227 226 225 228 230 231 231 231 231 229 227 227 229 231
236 236 240 238 243 246 238 231 234 236 231 231 235 236 236 240 237 240 241 239 236 239 238 234 229 228 229 233 231 228 227 226 228 231 230 231 233 233 233 232 230 230 232 233
233 233 234 240 240 231 239 230 233 235 236 232 236 235 236 235 238 240 237 238 232 239 237 234 229 232 233 237 236 232 228 229 231 232 231 233 236 236 234 234 234 234 235 237
228 228 232 234 234 241 242 240 229 228 233 234 230 235 237 232 236 238 236 233 235 235 239 234 233 237 240 239 238 232 231 233 231 232 234 234 237 238 238 237 237 238 238 239
224 223 226 226 231 232 227 238 246 237 234 227 226 227 229 226 233 236 234 234 234 236 239 234 232 236 235 235 232 232 231 231 234 234 236 237 239 239 241 242 240 240 240 241
219 219 222 227 230 236 234 247 238 221 233 227 226 227 226 232 236 235 230 232 232 235 233 232 232 233 236 235 234 234 233 232 243 237 239 241 239 240 245 244 242 241 241 243
218 217 219 222 222 229 234 231 231 238 242 233 225 226 222 228 229 227 225 228 230 230 229 232 236 239 240 240 239 241 242 242 242 238 245 241 243 243 244 244 245 243 241 243
226 219 215 218 220 221 226 228 235 235 226 224 210 215 212 217 221 221 221 225 228 232 234 236 236 241 244 245 245 244 247 247 247 246 245 246 243 243 244 245 246 244 243 243
229 217 218 213 215 213 221 230 227 223 214 214 206 206 205 206 213 215 218 223 225 228 233 238 241 243 246 249 250 251 253 251 249 247 247 247 245 246 247 249 246 247 248 245
225 216 212 213 213 207 210 220 225 218 210 204 202 199 202 202 208 212 218 224 229 233 237 242 245 248 251 254 255 257 256 253 252 252 253 252 251 249 249 251 252 249 248 245
215 213 208 209 204 198 199 214 219 212 200 199 198 200 203 206 208 212 217 227 234 242 246 248 252 256 258 260 260 260 260 259 257 256 256 255 253 251 250 251 251 250 243 240